Weather History for El Dorado, AR

Change the Weather History Date:

Wednesday, April 17, 2013

  Actual Average Record
Temperature  
Mean Temperature 79 °F 64 °F  
Max Temperature 87 °F 76 °F 91 °F (2006)
Min Temperature 70 °F 51 °F 34 °F (1951)
Degree Days  
Heating Degree Days 0 4  
Month to date heating degree days 102 86  
Since 1 July heating degree days 2575 2622  
Cooling Degree Days 14 2  
Month to date cooling degree days 55 32  
Year to date cooling degree days 67 60  
Growing Degree Days 28 (Base 50)    
Moisture  
Dew Point 69 °F    
Average Humidity 73    
Maximum Humidity 100    
Minimum Humidity 46    
Precipitation  
Precipitation 0.00 in 0.13 in 1.54 in (1977)
Month to date precipitation 2.91 2.27  
Year to date precipitation 12.63 16.11  
Snow  
Snow 0.00 in - - ()
Month to date snowfall 0.0  
Since 1 July snowfall 0.1  
Snow Depth 0.00 in    
Sea Level Pressure  
Sea Level Pressure 29.95 in    
Wind  
Wind Speed 11 mph (SSE)    
Max Wind Speed 25 mph    
Max Gust Speed 31 mph    
Visibility 8 miles    
Events      
T = Trace of Precipitation, MM = Missing Value Source: NWS Daily Summary

Daily Weather History Graph

Daily Weather History Graph

Search for Another Location

Airport:

Trip Planner

Search our weather history database for the weather conditions in past years. The results will help you decide how hot, cold, wet, or windy it might be!

Date:

Astronomy

Apr. 17, 2013 Rise Set
Actual Time 6:38 AM CDT 7:43 PM CDT
Civil Twilight 6:12 AM CDT 8:09 PM CDT
Nautical Twilight 5:42 AM CDT 8:39 PM CDT
Astronomical Twilight 5:11 AM CDT 9:11 PM CDT
Moon 11:58 AM CDT (4/17) 1:15 AM CDT (4/17)
Length of Visible Light 13h 56m
Length of Day
13h 05m
Waxing Crescent, 42% of the Moon is Illuminated
Apr 17
Waxing Crescent
Apr 18
First Quarter
Apr 25
Full
May 2
Last Quarter
May 9
New

Hourly Weather History & Observations

Time (CDT) Temp. Heat Index Dew Point Humidity Pressure Visibility Wind Dir Wind Speed Gust Speed Precip Events Conditions
12:53 AM 72.0 °F - 70.0 °F 93% 29.99 in 9.0 mi SE 5.8 mph - N/A   Overcast
1:53 AM 72.0 °F - 70.0 °F 93% 29.98 in 8.0 mi SSE 6.9 mph - N/A   Overcast
2:53 AM 70.0 °F - 70.0 °F 100% 29.98 in 6.0 mi SE 3.5 mph - N/A   Overcast
3:53 AM 71.1 °F - 70.0 °F 96% 29.99 in 6.0 mi SSE 4.6 mph - N/A   Overcast
4:53 AM 71.1 °F - 70.0 °F 96% 29.99 in 6.0 mi SSE 4.6 mph - N/A   Overcast
5:20 AM 71.6 °F - 69.8 °F 94% 30.00 in 5.0 mi SE 3.5 mph - N/A   Overcast
5:35 AM 71.6 °F - 69.8 °F 94% 30.00 in 5.0 mi SSE 3.5 mph - N/A   Overcast
5:53 AM 70.0 °F - 70.0 °F 100% 29.99 in 5.0 mi Calm Calm - N/A   Overcast
6:21 AM 69.8 °F - 69.8 °F 100% 30.01 in 5.0 mi SE 3.5 mph - N/A   Overcast
6:28 AM 69.8 °F - 69.8 °F 100% 30.01 in 5.0 mi SE 4.6 mph - N/A   Overcast
6:43 AM 69.8 °F - 69.8 °F 100% 30.01 in 5.0 mi SE 5.8 mph - N/A   Mostly Cloudy
6:53 AM 70.0 °F - 70.0 °F 100% 30.00 in 5.0 mi SE 6.9 mph - N/A   Mostly Cloudy
7:02 AM 69.8 °F - 69.8 °F 100% 30.01 in 4.0 mi SE 5.8 mph - N/A   Scattered Clouds
7:37 AM 71.6 °F - 69.8 °F 94% 30.02 in 5.0 mi SSE 5.8 mph - N/A   Mostly Cloudy
7:53 AM 71.1 °F - 70.0 °F 96% 30.02 in 5.0 mi SSE 5.8 mph - N/A   Overcast
8:19 AM 71.6 °F - 69.8 °F 94% 30.02 in 5.0 mi SSE 8.1 mph - N/A   Overcast
8:53 AM 71.6 °F - 71.6 °F 100% 30.03 in 6.0 mi SSE 10.4 mph - N/A   Overcast
9:28 AM 73.4 °F - 71.6 °F 94% 30.02 in 7.0 mi SE 9.2 mph - N/A   Overcast
9:53 AM 75.9 °F - 71.1 °F 85% 30.01 in 9.0 mi SSE 10.4 mph 20.7 mph N/A   Mostly Cloudy
10:10 AM 75.2 °F - 71.6 °F 89% 30.02 in 9.0 mi South 13.8 mph 20.7 mph N/A   Mostly Cloudy
10:53 AM 77.0 °F - 70.0 °F 79% 30.00 in 10.0 mi SSE 10.4 mph - N/A   Mostly Cloudy
11:12 AM 78.8 °F - 69.8 °F 74% 30.00 in 10.0 mi SSE 13.8 mph 20.7 mph N/A   Scattered Clouds
11:20 AM 78.8 °F - 69.8 °F 74% 30.00 in 10.0 mi SSE 15.0 mph 25.3 mph N/A   Mostly Cloudy
11:53 AM 80.1 °F 83.2 °F 70.0 °F 71% 29.97 in 10.0 mi South 13.8 mph - N/A   Mostly Cloudy
12:34 PM 80.6 °F 83.9 °F 69.8 °F 70% 29.98 in 10.0 mi SSE 19.6 mph 26.5 mph N/A   Mostly Cloudy
12:53 PM 82.9 °F 86.5 °F 69.1 °F 63% 29.95 in 10.0 mi SE 16.1 mph 25.3 mph N/A   Mostly Cloudy
1:53 PM 84.9 °F 88.2 °F 68.0 °F 57% 29.92 in 10.0 mi SSE 19.6 mph 31.1 mph N/A   Partly Cloudy
2:53 PM 84.9 °F 87.1 °F 66.0 °F 53% 29.89 in 10.0 mi SE 17.3 mph 26.5 mph N/A   Mostly Cloudy
3:53 PM 87.1 °F 88.9 °F 64.9 °F 48% 29.86 in 10.0 mi SSE 19.6 mph 28.8 mph N/A   Partly Cloudy
4:53 PM 84.9 °F 86.6 °F 64.9 °F 51% 29.83 in 10.0 mi SSE 13.8 mph 20.7 mph N/A   Clear
5:53 PM 84.9 °F 87.1 °F 66.0 °F 53% 29.81 in 10.0 mi SSE 19.6 mph 25.3 mph N/A   Partly Cloudy
6:53 PM 82.9 °F 85.4 °F 66.9 °F 58% 29.81 in 10.0 mi SSE 12.7 mph - N/A   Partly Cloudy
7:53 PM 81.0 °F 83.8 °F 68.0 °F 65% 29.81 in 10.0 mi SSE 12.7 mph - N/A   Mostly Cloudy
8:53 PM 78.1 °F - 66.9 °F 68% 29.81 in 10.0 mi SSE 10.4 mph - N/A   Clear
9:53 PM 77.0 °F - 66.9 °F 71% 29.82 in 10.0 mi SSE 6.9 mph - N/A   Clear
10:53 PM 75.9 °F - 68.0 °F 76% 29.81 in 10.0 mi South 9.2 mph - N/A   Mostly Cloudy
11:53 PM 75.0 °F - 68.0 °F 79% 29.81 in 10.0 mi South 9.2 mph - N/A   Partly Cloudy